Acapulco, Mexico

7:38 AM CDT on April 19, 2018 (GMT -0500)
Gen Juan N Alvarez International

Weather History for MMAA - November, 2011

Change the Weather History Date:

Friday, November 18, 2011

  Actual Average Record
Temperature  
Mean Temperature 80 °F -  
Max Temperature 89 °F 86 °F 96 °F (2014)
Min Temperature 72 °F 72 °F 42 °F (2002)
Cooling Degree Days 16    
Growing Degree Days 30 (Base 50)    
Moisture  
Dew Point 70 °F    
Average Humidity 74    
Maximum Humidity 99    
Minimum Humidity 58    
Precipitation  
Precipitation 0.00 in - - ()
Sea Level Pressure  
Sea Level Pressure 29.87 in    
Wind  
Wind Speed 4 mph ()    
Max Wind Speed 9 mph    
Max Gust Speed -    
Visibility 7.5 miles    
Events      
Averages and records for this station are not official NWS values.
T = Trace of Precipitation, MM = Missing Value Source: Averaged Metar Reports

Daily Weather History Graph

Daily Weather History Graph

Search for Another Location

Airport or City:

Astronomy

Nov. 18, 2011 Rise Set
Actual Time 6:44 AM CST 6:03 PM CST
Civil Twilight 6:21 AM CST 6:26 PM CST
Nautical Twilight 5:55 AM CST 6:52 PM CST
Astronomical Twilight 5:29 AM CST 7:18 PM CST
Moon 12:06 AM CST (11/18) 12:51 PM CST (11/18)
Length of Visible Light 12h 04m
Length of Day
11h 19m
Waning Gibbous, 49% of the Moon is Illuminated
Nov 18
Waning Gibbous
Nov 25
New
Dec 2
First Quarter
Dec 10
Full
Dec 17
Last Quarter

Hourly Weather History & Observations

Time (CST) Temp. Heat Index Dew Point Humidity Pressure Visibility Wind Dir Wind Speed Gust Speed Precip Events Conditions
12:44 AM 73.4 °F - 68.0 °F 83% 29.86 in 7.0 mi North 3.5 mph - N/A   Clear
1:44 AM 73.4 °F - 68.0 °F 83% 29.85 in 7.0 mi NNW 4.6 mph - N/A   Clear
2:48 AM 73.4 °F - 66.2 °F 78% 29.86 in 7.0 mi NNW 5.8 mph - N/A   Clear
2:50 AM 74 °F - 73 °F 97% 29.87 in 6 mi NW 2.2 mph - -  
3:44 AM 73.4 °F - 66.2 °F 78% 29.83 in 7.0 mi NW 5.8 mph - N/A   Clear
4:43 AM 75.2 °F - 66.2 °F 73% 29.83 in 7.0 mi NNW 3.5 mph - N/A   Clear
5:49 AM 73.4 °F - 66.2 °F 78% 29.82 in 7.0 mi NW 3.5 mph - N/A   Partly Cloudy
5:50 AM 73 °F - 73 °F 99% 29.85 in 6 mi WSW 2.2 mph - -   Scattered Clouds
6:45 AM 73.4 °F - 64.4 °F 73% 29.85 in 8.0 mi Calm Calm - N/A   Scattered Clouds
7:45 AM 73.4 °F - 66.2 °F 78% 29.87 in 7.0 mi Calm Calm - N/A   Mostly Cloudy
8:46 AM 78.8 °F - 66.2 °F 65% 29.88 in 7.0 mi NW 5.8 mph - N/A   Scattered Clouds
8:50 AM 79 °F - 74 °F 81% 29.91 in 12 mi NW 2.2 mph - -  
9:46 AM 82.4 °F 84.6 °F 66.2 °F 58% 29.89 in 7.0 mi NW 4.6 mph - N/A   Clear
10:44 AM 84.2 °F 88.4 °F 69.8 °F 62% 29.90 in 7.0 mi WSW 5.8 mph - N/A   Clear
11:47 AM 84.2 °F 88.4 °F 69.8 °F 62% 29.88 in 7.0 mi SW 9.2 mph - N/A   Clear
11:50 AM 86 °F - 75 °F 62% 29.90 in 12 mi WSW 6.7 mph - -   Scattered Clouds
12:48 PM 84.2 °F 89.6 °F 71.6 °F 66% 29.86 in 7.0 mi WSW 5.8 mph - N/A   Clear
1:44 PM 86.0 °F 93.4 °F 73.4 °F 66% 2.83 in 7.0 mi SW 5.8 mph - N/A   Clear
2:44 PM 84.2 °F 90.9 °F 73.4 °F 70% 29.88 in 7.0 mi SSW 6.9 mph - N/A   Clear
2:50 PM 86 °F - 76 °F 64% 29.83 in 12 mi WSW 6.7 mph - -   Scattered Clouds
3:48 PM 84.2 °F 89.6 °F 71.6 °F 66% 29.80 in 7.0 mi SW 6.9 mph - N/A   Clear
4:43 PM 82.4 °F 86.3 °F 69.8 °F 66% 29.80 in 7.0 mi SW 6.9 mph - N/A   Clear
5:40 PM 83 °F - 75 °F 71% 29.83 in 12 mi SW 4.5 mph - -   Scattered Clouds
5:41 PM 82.4 °F 86.3 °F 69.8 °F 66% 29.81 in 7.0 mi SW 8.1 mph - N/A   Scattered Clouds
6:45 PM 80.6 °F 83.9 °F 69.8 °F 70% 29.84 in 7.0 mi Calm Calm - N/A   Clear
7:43 PM 78.8 °F - 71.6 °F 78% 29.87 in 7.0 mi Calm Calm - N/A   Scattered Clouds
8:45 PM 80.6 °F 84.6 °F 71.6 °F 74% 29.90 in 7.0 mi Calm Calm - N/A   Scattered Clouds
8:50 PM 80 °F - 77 °F 89% 29.94 in 6 mi NE 2.2 mph - -   Scattered Clouds
9:43 PM 78.8 °F - 71.6 °F 78% 29.90 in 7.0 mi Calm Calm - N/A   Scattered Clouds
10:45 PM 78.8 °F - 69.8 °F 74% 29.91 in 7.0 mi NNE 5.8 mph - N/A   Scattered Clouds
11:45 PM 78.8 °F - 69.8 °F 74% 29.92 in 7.0 mi NE 3.5 mph - N/A   Scattered Clouds
11:50 PM 79 °F - 75 °F 83% 29.93 in 6 mi NE 2.2 mph - -   Partly Cloudy